Regional Weather Roundup
Issued by NWS Sioux Falls, SD

Home | Current Version | Previous Version | Text Only | Print | Product List | Glossary Off
Versions: 1 2 3 4 5 6 7 8 9 10 11 12 13 14 15 16 17 18 19 20 21 22 23 24 25 26 27 28 29 30 31 32 33 34 35 36 37 38 39 40 41 42 43 44 45 46 47 48 49 50

000
ASUS43 KFSD 210402
RWRFSD

WEATHER ROUNDUP FOR SE SOUTH DAKOTA/SW MINNESOTA/NW IOWA
NATIONAL WEATHER SERVICE SIOUX FALLS SD
1100 PM CDT WED AUG 20 2014

NOTE: "FAIR" INDICATES FEW OR NO CLOUDS BELOW 12,000 FEET WITH NO
SIGNIFICANT WEATHER AND OR OBSTRUCTIONS TO VISIBILITY.


SDZ038>040-050-052>070-210500-
SOUTHEAST SOUTH DAKOTA

CITY           SKY/WX    TMP DP  RH WIND       PRES   REMARKS
CHAMBERLAIN    CLEAR     73  72  95 SE7       29.67S
HURON          PTCLDY    75  70  84 SE10      29.69S
MADISON        FAIR      72  72 100 SE10      29.76F
MITCHELL       CLEAR     75  73  93 SE9       29.69F
SIOUX FALLS    CLOUDY    74  71  91 SE9       29.75F
WINNER         FAIR      76  69  79 SE6       29.69S
YANKTON        MOCLDY    77  75  94 E8        29.72F
$$

MNZ071-072-080-081-089-090-097-098-210500-
SOUTHWEST MINNESOTA

CITY           SKY/WX    TMP DP  RH WIND       PRES   REMARKS
FAIRMONT       CLOUDY    72  64  78 SE7       29.84S
JACKSON        RAIN      72  68  88 SE8       29.84F
LUVERNE        CLOUDY    72  70  94 SE5       29.78F
MARSHALL       MOCLDY    73  66  78 SE12      29.77F
MONTEVIDEO     CLOUDY    73  70  88 S9        29.79F
PIPESTONE      CLOUDY    72  70  94 SE9       29.79F
REDWOOD FALLS  CLOUDY    74  69  85 SE10      29.81F
TRACY          CLOUDY    72  69  90 SE8       29.80F
WINDOM         CLOUDY    72  68  88 E7        29.82F
WORTHINGTON    CLOUDY    70  12  11 SE7       29.83S
$$

IAZ001>003-012>014-020>022-031-032-NEZ013-014-SDZ071-210500-
NORTHWEST IOWA

CITY           SKY/WX    TMP DP  RH WIND       PRES   REMARKS
CHEROKEE       PTCLDY    70  70 100 NE3       29.81S
DENISON        CLEAR     79  75  89 SE13G20   29.79S
ESTHERVILLE    CLOUDY    69  68  96 SE7       29.83F
LE MARS        PTCLDY    77  75  94 SE8       29.77F
ORANGE CITY    PTCLDY    75  72  88 SE5       29.79F
SHELDON        MOCLDY    72  72 100 SE9       29.79S
SIOUX CITY     PTCLDY    78  74  87 SE9       29.76S
SPENCER        MOCLDY    72  69  90 SE9       29.82F
STORM LAKE     PTCLDY    72  72 100 SE5       29.83F
$$

ABBREVIATIONS USED IN REMARKS
   TC - TEMPERATURE IN CELSIUS
  WCI - WIND CHILL INDEX
   HX - HEAT INDEX
  VSB - VISIBILITY




USA.gov is the U.S. government's official web portal to all federal, state and local government web resources and services.